Home   Weather   Rostov-on-Don   Past weeks

Flag for Russia Past Weather in Rostov-on-Don, Russia — Yesterday and Last 2 Weeks

Now
50 °F

Scattered clouds.


Feels Like: 46 °F
Forecast: 39 / 53 °F
Wind: 10 mph from West

Location: Rostov-Na-Donu

Current Time: Apr 24, 2017 at 10:59:01 am

Latest Report: Apr 24, 2017 at 10:30 am


Visibility: N/A

Pressure: 29.83 "Hg

Humidity: 76%

Dew Point: 43 °F

Location of Rostov-on-DonLocation

Past Weather in Rostov-on-Don — Graph

°F

Rostov-on-Don Temperature Yesterday

Maximum temperature yesterday: 45 °F (at 12:00 am)
Minimum temperature yesterday: 39 °F (at 5:30 pm)
Average temperature yesterday: 42 °F

High & Low Weather Summary for the Past Weeks

 TemperatureHumidityPressure
High72 °F (Apr 18, 4:30 pm)100% (Apr 19, 6:30 pm)30.18 "Hg (Apr 19, 6:30 pm)
Low34 °F (Apr 20, 6:00 am)30% (Apr 13, 4:00 pm)29.53 "Hg (Apr 23, 11:00 pm)
Average49 °F72%29.92 "Hg
* Reported Apr 9 9:00 am — Apr 24 9:30 am, Rostov-on-Don, Weather by CustomWeather, © 2017

Note: Actual official high and low records may vary slightly from our data, if they occured in-between our weather recording intervals... More about our weather records

Advertising

Rostov-on-Don Weather History for the Previous 24 Hours

Scroll right to see more
 ConditionsComfort  
Time TempWeatherWind HumidityBarometerVisibility
9:30 am
Mon, Apr 24
50 °FScattered clouds.10 mph71%29.80 "HgN/A
9:00 am48 °FScattered clouds.10 mph82%29.80 "HgN/A
8:30 am46 °FScattered clouds.8 mph82%29.80 "HgN/A
8:00 am45 °FScattered clouds.8 mph87%29.80 "HgN/A
7:30 am43 °FQuite cool.8 mph93%29.80 "HgN/A
6:30 am41 °FSprinkles. Broken clouds.10 mph93%29.74 "Hg4 mi
5:30 am39 °FSprinkles. Broken clouds.8 mph93%29.71 "Hg5 mi
5:00 am39 °FSprinkles. Passing clouds.6 mph93%29.68 "Hg4 mi
4:30 am37 °FSprinkles. Partly cloudy.8 mph93%29.68 "Hg4 mi
4:00 am37 °FSprinkles. Partly cloudy.13 mph93%29.65 "Hg4 mi
3:30 am37 °FSprinkles. Partly cloudy.10 mph93%29.65 "Hg4 mi
3:00 am37 °FSprinkles. Partly cloudy.10 mph93%29.62 "Hg3 mi
2:30 am37 °FSprinkles. Partly cloudy.13 mph93%29.59 "Hg4 mi
2:00 am37 °FSprinkles. Partly cloudy.15 mph93%29.56 "Hg3 mi
1:30 am37 °FSprinkles. Partly cloudy.15 mph93%29.53 "Hg2 mi
1:00 am39 °FSprinkles. Partly cloudy.13 mph93%29.53 "Hg4 mi
12:30 am41 °FSprinkles. Partly cloudy.10 mph93%29.53 "Hg2 mi
11:30 pm
Sun, Apr 23
41 °FSprinkles. Partly cloudy.8 mph93%29.53 "Hg2 mi
11:00 pm41 °FSprinkles. Partly cloudy.8 mph93%29.53 "Hg2 mi
10:30 pm39 °FSprinkles. Partly cloudy.10 mph93%29.56 "Hg2 mi
10:00 pm39 °FSprinkles. Partly cloudy.13 mph93%29.56 "Hg1 mi
9:30 pm39 °FSprinkles. Partly cloudy.15 mph93%29.56 "Hg2 mi
9:00 pm41 °FSprinkles. Partly cloudy.15 mph87%29.56 "Hg1 mi
8:30 pm41 °FRain showers. Partly cloudy.17 mph87%29.56 "Hg1 mi
8:00 pm41 °FSprinkles. Partly cloudy.22 mph93%29.59 "Hg2 mi
7:30 pm41 °FSprinkles. Partly cloudy.20 mph93%29.56 "Hg5 mi
7:00 pm41 °FSprinkles. Broken clouds.22 mph87%29.59 "Hg4 mi
6:30 pm39 °FSprinkles. Fog.20 mph93%29.56 "Hg2 mi
6:00 pm41 °FSprinkles. Fog.10 mph87%29.65 "Hg3 mi
5:30 pm39 °FSprinkles. Fog.10 mph93%29.65 "Hg2 mi
5:00 pm41 °FSprinkles. Fog.17 mph87%29.65 "Hg2 mi
4:00 pm41 °FSprinkles. Fog.13 mph93%29.65 "Hg2 mi
3:00 pm43 °FSprinkles. Fog.13 mph87%29.68 "Hg2 mi
2:30 pm43 °FSprinkles. Fog.10 mph87%29.68 "Hg2 mi
2:00 pm43 °FSprinkles. Fog.13 mph87%29.71 "Hg3 mi
1:30 pm43 °FSprinkles. Scattered clouds.8 mph87%29.74 "Hg3 mi
1:00 pm43 °FSprinkles. Scattered clouds.6 mph87%29.74 "Hg3 mi
12:30 pm43 °FSprinkles. Scattered clouds.6 mph87%29.77 "Hg4 mi
12:00 pm45 °FSprinkles. Scattered clouds.6 mph76%29.77 "Hg4 mi
11:30 am45 °FSprinkles. Scattered clouds.1 mph71%29.80 "Hg5 mi
11:00 am45 °FScattered clouds.6 mph71%29.83 "HgN/A
10:30 am45 °FScattered clouds.8 mph71%29.83 "HgN/A
10:00 am45 °FScattered clouds.10 mph71%29.86 "HgN/A
Weather by CustomWeather, © 2017

See weather overviewHow to use our weather pages